Temp
-6 -6 -7 -7 -8 -8 -9 -9 -9 -10 -11 -12 -12 -12 -12 -12 -13 -13 -14 -14 -14 -15 -15 -15 -15 -15 -15 -15 -15 -16 -16 -16 -15 -14 -12 -11 -10 -8 -7 -7 -6 -4 -3
-6 -7 -7 -8 -8 -9 -9 -9 -10 -11 -11 -12 -12 -12 -12 -13 -13 -13 -14 -14 -15 -15 -15 -15 -15 -15 -15 -16 -16 -16 -16 -16 -16 -14 -13 -12 -10 -9 -8 -7 -7 -5 -3
-7 -7 -8 -8 -9 -9 -9 -9 -10 -11 -12 -12 -12 -12 -12 -13 -13 -14 -14 -15 -15 -15 -15 -15 -15 -15 -15 -16 -16 -16 -16 -17 -16 -15 -14 -13 -11 -10 -9 -8 -7 -7 -4
-7 -8 -8 -8 -9 -9 -9 -10 -10 -11 -12 -12 -12 -12 -13 -13 -13 -14 -14 -15 -15 -15 -16 -15 -15 -15 -15 -15 -16 -16 -16 -16 -16 -16 -15 -14 -12 -11 -10 -9 -8 -7 -6
-8 -8 -8 -9 -9 -9 -10 -10 -11 -12 -12 -12 -13 -13 -13 -13 -14 -14 -15 -15 -15 -16 -16 -16 -16 -16 -16 -16 -16 -16 -16 -16 -16 -15 -15 -14 -13 -11 -10 -10 -8 -7 -6
-8 -8 -9 -9 -9 -9 -10 -10 -11 -12 -12 -13 -13 -13 -13 -13 -14 -14 -15 -15 -15 -16 -16 -16 -16 -16 -16 -16 -16 -16 -16 -16 -16 -15 -15 -14 -13 -12 -10 -10 -9 -7 -5
-8 -9 -9 -9 -10 -10 -10 -11 -11 -12 -12 -13 -13 -13 -13 -14 -14 -14 -15 -15 -15 -15 -16 -16 -16 -15 -15 -15 -16 -16 -16 -16 -16 -15 -15 -14 -13 -12 -10 -10 -9 -8 -7
-9 -9 -9 -10 -10 -10 -10 -11 -11 -12 -12 -13 -13 -13 -14 -14 -14 -14 -15 -15 -15 -15 -15 -15 -15 -15 -15 -15 -15 -15 -16 -16 -16 -16 -15 -14 -13 -12 -11 -10 -9 -8 -8
-9 -9 -10 -10 -10 -10 -11 -11 -11 -12 -13 -13 -13 -13 -14 -14 -14 -14 -15 -15 -15 -15 -15 -15 -15 -15 -15 -15 -15 -15 -15 -15 -16 -16 -15 -14 -13 -12 -11 -10 -9 -8 -7
-9 -10 -10 -10 -10 -11 -11 -11 -12 -12 -13 -14 -14 -13 -14 -14 -14 -14 -14 -15 -15 -15 -15 -15 -15 -15 -15 -15 -15 -15 -15 -15 -15 -15 -16 -15 -13 -12 -11 -10 -9 -8 -7
-10 -10 -10 -10 -11 -11 -11 -12 -12 -12 -13 -14 -13 -13 -14 -14 -14 -14 -14 -15 -15 -15 -15 -15 -15 -15 -15 -15 -15 -14 -14 -15 -15 -15 -15 -15 -14 -13 -12 -10 -9 -8 -8
-10 -10 -11 -11 -11 -11 -12 -12 -12 -13 -13 -14 -14 -13 -14 -14 -14 -14 -15 -15 -15 -15 -15 -15 -15 -15 -15 -15 -15 -15 -15 -14 -15 -15 -15 -15 -14 -13 -12 -10 -9 -9 -8
-10 -11 -11 -11 -11 -12 -12 -12 -12 -13 -13 -13 -13 -13 -14 -14 -14 -14 -15 -15 -15 -15 -15 -15 -15 -15 -15 -15 -15 -15 -14 -14 -14 -14 -14 -14 -14 -14 -13 -11 -10 -9 -9
-11 -11 -11 -11 -12 -12 -12 -12 -13 -13 -13 -14 -13 -13 -13 -14 -14 -14 -14 -15 -15 -15 -15 -15 -15 -15 -15 -15 -14 -14 -14 -14 -13 -14 -14 -14 -14 -14 -13 -12 -11 -9 -9
-11 -11 -11 -11 -12 -12 -12 -12 -12 -13 -13 -13 -13 -13 -13 -13 -14 -14 -15 -15 -15 -15 -15 -15 -15 -15 -15 -14 -14 -14 -14 -14 -13 -13 -13 -13 -14 -13 -13 -13 -13 -12 -10
-11 -11 -11 -12 -12 -12 -12 -12 -13 -13 -13 -13 -14 -14 -14 -14 -14 -14 -15 -15 -15 -15 -15 -15 -15 -15 -14 -15 -14 -14 -14 -14 -14 -13 -13 -13 -13 -13 -13 -12 -12 -11 -11
-11 -11 -11 -12 -12 -12 -12 -13 -13 -13 -13 -14 -14 -14 -14 -14 -14 -14 -14 -15 -15 -15 -15 -14 -14 -14 -14 -14 -14 -14 -14 -14 -14 -13 -13 -12 -12 -13 -12 -12 -11 -11 -10
-11 -11 -12 -12 -12 -12 -13 -13 -13 -13 -13 -13 -14 -14 -14 -14 -14 -14 -14 -14 -14 -14 -14 -14 -14 -14 -14 -14 -14 -14 -14 -14 -14 -13 -13 -13 -12 -11 -11 -11 -12 -11 -11
-11 -11 -12 -12 -12 -12 -13 -13 -13 -13 -13 -14 -14 -14 -14 -15 -15 -14 -14 -13 -13 -14 -14 -14 -14 -14 -14 -14 -14 -14 -14 -14 -14 -14 -13 -13 -12 -12 -11 -11 -11 -10 -10
-11 -11 -12 -12 -12 -12 -13 -13 -13 -13 -14 -14 -14 -14 -14 -14 -14 -14 -14 -14 -14 -13 -14 -14 -14 -14 -14 -14 -14 -14 -14 -14 -14 -14 -13 -13 -13 -13 -12 -12 -11 -11 -11
-11 -11 -12 -12 -12 -12 -13 -13 -13 -13 -14 -14 -14 -14 -14 -14 -14 -14 -14 -14 -14 -14 -14 -14 -14 -14 -14 -14 -14 -14 -14 -14 -14 -14 -13 -13 -13 -13 -12 -12 -12 -11 -11
-11 -11 -12 -12 -12 -12 -12 -13 -13 -13 -13 -14 -14 -14 -14 -14 -14 -14 -14 -14 -14 -14 -14 -14 -14 -14 -14 -14 -14 -14 -14 -13 -13 -13 -13 -13 -13 -13 -12 -12 -12 -12 -11
-11 -11 -11 -12 -12 -12 -12 -13 -13 -13 -13 -13 -14 -14 -14 -14 -14 -14 -14 -14 -14 -14 -14 -14 -14 -14 -14 -14 -14 -13 -13 -13 -13 -13 -13 -13 -13 -13 -13 -12 -12 -12 -11
-11 -11 -11 -12 -12 -12 -12 -12 -13 -13 -13 -13 -13 -14 -14 -14 -14 -14 -14 -14 -14 -14 -14 -14 -14 -14 -14 -14 -14 -13 -13 -13 -13 -13 -13 -13 -12 -12 -12 -12 -12 -12 -12
-11 -11 -11 -11 -12 -12 -12 -12 -13 -13 -13 -13 -13 -13 -13 -14 -14 -14 -14 -14 -14 -14 -14 -14 -14 -14 -14 -14 -13 -13 -13 -13 -13 -13 -13 -13 -12 -12 -12 -12 -12 -12 -12
-11 -11 -11 -11 -12 -12 -12 -12 -12 -13 -13 -13 -13 -13 -13 -13 -13 -14 -14 -14 -14 -14 -14 -14 -14 -14 -14 -14 -14 -13 -13 -13 -13 -13 -13 -13 -13 -13 -12 -12 -12 -12 -12
Height
3084 3079 3073 3067 3062 3057 3050 3044 3037 3031 3026 3019 3013 3007 3000 2993 2986 2978 2970 2962 2955 2949 2943 2938 2932 2927 2923 2918 2914 2910 2907 2904 2900 2901 2899 2900 2903 2907 2912 2918 2926 2934 2943
3082 3076 3070 3065 3059 3054 3048 3042 3035 3029 3023 3017 3012 3005 2998 2990 2982 2973 2965 2957 2950 2944 2938 2933 2927 2923 2919 2914 2910 2907 2904 2901 2898 2896 2894 2896 2898 2901 2906 2912 2920 2928 2936
3080 3073 3068 3062 3057 3052 3045 3039 3033 3027 3021 3016 3010 3003 2995 2986 2978 2970 2962 2954 2946 2940 2934 2928 2923 2919 2915 2911 2907 2903 2901 2898 2895 2893 2891 2892 2894 2897 2901 2907 2913 2922 2930
3077 3071 3065 3060 3055 3049 3043 3037 3031 3025 3020 3014 3008 3001 2993 2984 2976 2968 2960 2952 2944 2937 2931 2925 2920 2916 2912 2908 2904 2901 2898 2896 2894 2891 2890 2890 2892 2895 2898 2903 2910 2916 2922
3073 3068 3063 3058 3053 3047 3041 3035 3029 3023 3017 3012 3006 2999 2991 2983 2974 2966 2959 2950 2943 2936 2930 2924 2919 2915 2910 2906 2902 2899 2896 2894 2892 2890 2889 2889 2890 2893 2897 2901 2907 2913 2918
3070 3066 3061 3057 3051 3046 3039 3034 3027 3021 3016 3010 3004 2997 2990 2982 2973 2966 2959 2951 2943 2936 2930 2924 2919 2914 2910 2905 2901 2897 2895 2893 2891 2889 2888 2889 2890 2893 2896 2901 2907 2913 2917
3068 3064 3059 3055 3050 3045 3039 3032 3026 3020 3014 3009 3002 2996 2989 2981 2973 2966 2959 2952 2944 2937 2931 2925 2920 2914 2910 2905 2901 2897 2894 2893 2891 2890 2889 2890 2891 2893 2897 2901 2907 2912 2916
3067 3063 3059 3054 3049 3043 3038 3032 3025 3018 3013 3007 3001 2995 2989 2981 2974 2967 2960 2953 2945 2939 2932 2926 2921 2915 2911 2906 2902 2899 2896 2894 2892 2891 2890 2890 2891 2893 2897 2901 2907 2912 2918
3065 3062 3058 3053 3048 3043 3038 3031 3024 3017 3011 3006 3000 2995 2989 2982 2975 2968 2961 2955 2947 2941 2934 2928 2923 2918 2913 2908 2905 2902 2898 2896 2894 2893 2891 2892 2892 2893 2898 2902 2906 2912 2919
3064 3061 3057 3052 3048 3043 3037 3030 3023 3016 3010 3005 3000 2995 2990 2983 2976 2970 2964 2957 2950 2943 2936 2931 2926 2920 2916 2912 2909 2906 2902 2899 2897 2896 2895 2894 2893 2894 2898 2903 2908 2913 2918
3063 3060 3056 3052 3048 3043 3037 3031 3024 3017 3010 3005 3001 2996 2991 2984 2978 2972 2966 2960 2953 2945 2940 2934 2929 2924 2920 2916 2912 2908 2906 2903 2901 2900 2899 2898 2898 2897 2898 2902 2907 2914 2918
3062 3059 3056 3052 3048 3043 3038 3031 3026 3019 3013 3008 3004 2999 2993 2986 2980 2974 2968 2962 2955 2949 2943 2938 2933 2929 2925 2920 2916 2912 2909 2907 2905 2904 2903 2902 2902 2901 2902 2905 2907 2912 2918
3061 3059 3056 3053 3048 3044 3039 3033 3028 3022 3015 3011 3006 3002 2996 2989 2983 2977 2971 2964 2958 2953 2948 2943 2939 2934 2930 2926 2922 2918 2915 2912 2910 2909 2907 2906 2906 2906 2907 2909 2913 2917 2921
3063 3062 3059 3055 3050 3046 3040 3036 3031 3025 3019 3013 3008 3004 2999 2994 2988 2980 2974 2968 2962 2958 2954 2950 2945 2940 2936 2932 2928 2924 2920 2917 2915 2913 2911 2911 2911 2912 2912 2912 2915 2919 2922
3065 3063 3060 3056 3052 3048 3043 3038 3033 3027 3020 3015 3010 3006 3002 2996 2989 2983 2978 2972 2968 2964 2960 2956 2953 2948 2944 2939 2934 2930 2926 2923 2921 2919 2917 2916 2916 2916 2917 2919 2920 2920 2921
3065 3063 3060 3057 3054 3050 3045 3041 3036 3030 3024 3018 3013 3008 3003 2999 2994 2989 2983 2978 2974 2970 2966 2962 2958 2954 2950 2945 2942 2938 2934 2930 2927 2925 2925 2924 2923 2922 2923 2923 2924 2927 2930
3065 3062 3061 3059 3055 3051 3048 3044 3039 3034 3028 3023 3017 3012 3008 3003 2999 2994 2989 2984 2980 2976 2972 2967 2963 2959 2956 2952 2949 2945 2942 2939 2936 2933 2931 2930 2931 2931 2931 2931 2932 2934 2937
3065 3063 3062 3059 3057 3054 3050 3047 3043 3038 3033 3028 3023 3018 3013 3008 3003 2999 2995 2991 2988 2983 2977 2973 2969 2965 2962 2959 2956 2953 2950 2947 2945 2942 2940 2938 2937 2936 2937 2938 2940 2942 2943
3065 3065 3063 3061 3058 3056 3053 3049 3045 3041 3036 3031 3026 3023 3018 3013 3008 3004 3001 2997 2992 2987 2983 2979 2975 2972 2969 2966 2963 2961 2958 2955 2953 2951 2949 2947 2945 2945 2944 2944 2945 2946 2947
3066 3066 3064 3062 3060 3058 3055 3052 3049 3045 3041 3037 3033 3028 3024 3020 3017 3011 3006 3001 2997 2993 2989 2985 2982 2979 2976 2973 2971 2968 2966 2964 2962 2960 2958 2956 2954 2953 2951 2951 2950 2951 2951
3067 3066 3065 3064 3062 3060 3057 3055 3052 3049 3045 3041 3038 3034 3030 3026 3022 3017 3013 3008 3004 2999 2995 2992 2989 2986 2984 2981 2979 2977 2974 2973 2970 2968 2966 2965 2964 2962 2961 2960 2960 2960 2960
3068 3067 3066 3065 3063 3062 3059 3057 3055 3052 3048 3045 3041 3037 3034 3031 3027 3023 3019 3015 3011 3006 3002 2999 2996 2993 2991 2988 2986 2984 2982 2980 2978 2977 2975 2973 2971 2970 2969 2969 2969 2968 2968
3069 3069 3068 3066 3065 3063 3061 3059 3057 3054 3051 3048 3044 3041 3039 3036 3032 3029 3025 3022 3018 3014 3010 3006 3003 3000 2997 2995 2993 2991 2989 2988 2986 2984 2982 2980 2979 2977 2976 2976 2975 2975 2974
3071 3070 3069 3068 3067 3065 3063 3061 3059 3056 3053 3051 3048 3045 3042 3039 3036 3033 3030 3027 3024 3021 3018 3014 3011 3008 3005 3002 3000 2997 2995 2993 2992 2990 2989 2987 2986 2985 2984 2983 2982 2981 2980
3071 3071 3070 3069 3068 3067 3065 3063 3061 3058 3055 3053 3050 3048 3045 3043 3040 3037 3035 3032 3029 3026 3024 3021 3018 3015 3012 3010 3007 3005 3002 3000 2999 2997 2995 2994 2992 2991 2990 2989 2988 2988 2987
3071 3071 3071 3070 3069 3067 3066 3065 3062 3060 3057 3055 3052 3050 3047 3045 3043 3040 3038 3036 3033 3031 3028 3026 3024 3021 3018 3016 3014 3011 3009 3008 3006 3003 3001 3000 2999 2998 2997 2996 2995 2994 2993
Wind_Speed
37 36 33 30 28 28 29 29 29 28 25 27 25 29 31 33 35 36 35 33 31 28 27 25 24 23 21 21 20 20 20 18 18 10 13 18 25 29 32 32 34 37 41
35 34 30 28 27 28 29 29 28 26 26 26 26 29 32 36 39 38 35 33 31 28 25 22 21 20 19 18 19 17 16 15 16 11 9 11 21 25 29 31 31 34 38
33 31 27 26 26 28 29 29 28 25 25 26 27 29 33 38 41 38 36 34 31 28 24 22 20 19 17 15 15 14 12 11 12 10 6 6 16 21 24 29 31 30 37
31 27 25 25 26 28 29 29 28 26 25 26 27 30 34 38 39 37 36 33 29 27 25 22 20 19 19 17 15 11 9 9 9 7 5 3 7 14 18 25 30 30 30
27 24 23 24 26 28 28 29 28 26 26 27 27 29 33 37 38 36 35 34 30 26 24 22 19 19 18 18 15 9 7 6 6 5 4 1 4 10 14 19 27 23 24
24 22 22 23 26 27 28 28 27 26 25 26 27 29 32 36 34 32 33 33 30 27 24 21 20 18 18 16 14 11 8 5 5 4 2 1 4 9 16 19 18 19 19
21 20 21 23 24 26 28 28 27 26 25 26 27 29 31 34 31 29 30 30 29 27 24 22 20 20 18 17 16 13 10 7 6 6 3 2 5 10 18 22 21 21 14
18 18 20 22 24 25 27 28 28 28 26 25 26 28 30 32 28 28 28 28 26 26 24 23 21 20 19 19 16 13 10 8 7 6 4 5 7 10 17 21 24 22 20
16 17 19 21 23 25 26 28 29 29 27 24 25 27 29 31 27 26 27 26 25 24 24 23 21 20 19 19 16 15 14 11 9 9 11 11 8 10 14 19 24 25 24
14 15 17 20 22 24 26 28 30 31 29 25 24 26 29 30 27 26 26 26 24 25 24 22 21 20 20 19 17 16 15 14 13 13 16 15 9 10 14 17 20 22 29
12 14 16 19 21 23 26 28 30 30 27 23 24 25 28 29 26 25 26 28 28 29 26 23 22 22 21 20 20 20 20 19 15 15 17 17 14 12 15 17 18 22 20
11 13 15 17 19 22 25 28 28 28 24 20 22 23 27 29 26 25 26 29 31 31 30 28 26 24 22 22 21 21 20 19 18 16 17 18 18 19 19 20 18 20 21
9 12 13 15 18 21 24 26 27 26 22 19 20 21 25 28 27 26 27 29 31 31 30 30 28 27 25 23 21 20 19 19 19 18 20 21 22 23 22 23 23 23 24
11 12 14 17 18 20 23 25 26 27 25 20 20 21 23 27 28 28 30 30 28 28 26 26 27 26 26 25 25 23 22 22 22 21 22 23 23 23 24 26 25 24 24
11 12 13 16 17 19 22 25 27 29 30 26 22 22 23 26 32 33 31 31 29 25 25 23 22 23 24 26 26 27 27 26 25 24 23 22 21 23 24 25 23 23 20
9 11 14 15 17 20 22 24 27 30 31 30 26 25 26 27 28 30 32 31 28 26 22 22 23 24 24 26 27 30 31 30 29 27 25 24 22 21 21 21 21 21 19
9 12 13 15 17 19 21 23 25 28 30 30 30 27 26 26 27 27 29 31 29 26 23 23 25 25 26 26 26 27 29 30 30 30 29 26 23 22 20 20 19 18 19
10 12 13 15 17 19 20 21 24 26 27 29 30 30 29 28 27 27 26 25 24 27 28 27 26 26 26 26 26 27 27 27 28 29 29 29 27 25 22 20 20 18 18
10 10 12 14 17 18 19 20 22 24 27 29 31 30 31 32 30 27 24 23 25 27 29 30 28 27 27 26 28 29 28 28 28 28 29 29 29 28 27 25 24 22 20
8 9 11 12 14 16 18 19 21 22 23 25 26 28 29 28 27 29 29 28 26 27 28 28 29 28 28 27 27 27 28 26 27 28 29 30 31 30 29 28 26 25 24
7 8 10 11 13 14 15 17 18 20 21 21 23 24 27 28 29 30 30 30 30 29 28 28 27 27 27 27 26 26 27 27 27 28 29 29 30 31 31 31 30 29 27
7 8 10 11 12 13 14 14 15 17 19 21 21 22 24 25 26 27 29 30 31 31 31 30 27 26 25 25 25 25 25 24 24 25 25 26 27 28 28 28 28 29 30
7 8 9 11 12 13 13 14 14 15 17 18 20 20 21 21 22 24 25 27 28 30 31 31 30 28 27 25 23 23 23 23 23 24 25 26 26 26 26 26 26 26 26
6 6 8 10 11 12 13 14 14 15 15 16 16 18 19 19 20 21 22 23 24 25 26 27 28 29 29 28 28 27 26 25 24 24 24 24 24 24 24 24 24 25 25
4 4 6 8 9 11 12 13 14 14 15 15 15 15 16 17 18 19 19 20 21 21 22 22 23 24 26 26 27 27 28 28 28 29 29 29 28 27 26 25 25 24 24
2 2 4 5 7 8 10 11 13 14 14 14 14 14 14 15 16 17 17 18 18 18 19 19 20 20 21 21 22 23 24 24 25 26 26 26 26 25 26 25 25 25 25
Wind_Direction
343 343 345 345 347 347 349 350 350 349 350 353 354 353 352 351 349 345 340 337 334 332 328 327 323 323 323 319 318 316 316 314 314 300 262 241 232 229 223 217 209 204 205
342 345 346 346 348 349 351 351 350 350 351 352 352 353 351 351 350 350 348 346 343 340 336 332 328 328 326 323 317 316 317 316 320 316 280 242 226 228 226 215 210 204 204
343 345 346 348 350 350 352 352 351 350 352 351 351 352 353 352 351 353 352 350 349 348 345 342 340 338 336 330 326 321 317 318 327 331 311 237 218 222 222 217 210 205 202
345 345 347 350 350 352 353 353 351 349 352 350 349 354 354 353 352 355 355 356 356 353 352 350 348 346 344 345 339 326 319 320 335 343 330 274 213 210 214 215 207 204 203
344 345 349 350 353 354 354 353 351 350 351 351 351 355 355 354 354 356 359 1 1 0 357 357 355 353 350 349 349 342 328 331 348 356 341 299 191 189 191 202 200 198 201
344 346 350 352 355 354 355 354 354 352 350 352 354 357 356 357 355 356 1 4 5 6 5 3 3 2 2 359 360 358 359 7 7 23 25 142 161 167 170 184 185 201 204
344 349 352 355 356 356 356 356 357 355 353 354 358 359 359 359 357 357 3 5 8 10 11 9 8 7 9 14 13 16 17 30 41 50 59 134 138 155 171 180 172 187 208
346 351 354 356 358 358 358 359 359 359 358 358 1 1 3 1 1 1 5 6 10 12 14 13 12 13 15 20 22 28 36 45 49 58 77 93 136 158 171 179 178 185 204
349 355 356 357 360 360 1 2 4 3 2 3 5 5 6 5 7 9 11 11 12 18 18 17 17 21 24 26 29 36 44 53 61 77 78 85 124 157 165 172 176 175 197
353 357 359 1 1 3 5 6 7 5 6 10 7 8 10 9 12 15 19 20 25 26 24 24 24 28 32 36 42 50 56 60 67 78 78 86 105 150 163 169 173 177 179
354 359 4 5 4 6 10 11 10 8 11 13 11 12 12 14 17 19 27 29 31 32 32 33 34 34 35 39 42 52 58 59 64 75 81 89 103 132 152 169 180 180 176
356 4 9 9 10 11 14 16 15 12 15 17 16 16 17 19 21 22 28 31 34 35 35 37 38 38 38 41 43 47 52 60 61 68 78 88 98 114 136 158 177 175 178
4 9 12 16 17 17 20 21 19 20 22 23 24 24 24 26 25 25 30 31 34 36 37 38 39 40 43 47 50 52 59 69 70 74 81 85 90 101 111 132 156 172 172
13 12 14 19 21 21 24 25 24 27 30 31 30 31 32 32 32 33 36 35 35 35 36 36 37 40 45 48 52 57 63 68 72 73 75 80 81 88 98 110 121 134 144
18 18 21 23 23 24 27 26 28 31 32 32 33 34 35 34 35 34 35 38 38 38 38 39 41 46 51 54 57 60 61 63 68 71 74 79 82 83 88 91 93 100 117
23 26 27 27 26 27 28 28 31 33 34 33 33 33 34 35 36 34 36 38 38 41 41 44 49 51 55 57 60 62 61 62 63 66 72 77 82 85 89 90 93 99 100
38 36 32 31 31 30 30 31 34 36 37 37 36 35 35 36 36 34 35 36 39 43 47 50 53 54 55 57 57 58 59 58 59 62 66 73 80 84 88 95 100 105 111
53 45 39 37 35 32 32 32 36 39 39 40 40 39 40 39 38 36 36 36 39 45 50 53 55 57 57 57 57 56 56 59 62 63 65 69 74 79 83 91 98 102 105
64 54 47 41 37 35 33 33 34 36 38 39 38 38 40 41 40 39 40 41 43 46 49 52 54 56 57 59 59 58 59 62 64 66 67 68 71 75 79 83 87 90 94
67 55 46 40 36 35 34 35 35 36 40 41 41 41 42 43 43 44 44 44 44 46 49 52 53 56 58 60 60 59 60 64 68 71 72 72 72 72 74 75 77 80 82
65 54 46 41 36 32 33 34 35 37 40 41 42 43 43 43 44 46 47 48 49 48 49 50 52 54 56 58 61 62 63 66 70 72 73 73 76 77 77 79 81 83 84
69 59 52 46 39 35 33 31 32 35 38 39 41 41 42 41 42 44 46 48 49 51 52 52 52 53 55 56 59 62 64 65 68 70 71 70 70 73 77 79 81 83 84
76 64 58 50 42 38 35 31 31 32 35 37 39 40 41 41 42 44 45 47 48 50 51 52 53 54 56 57 59 62 65 67 68 68 68 69 70 71 73 74 76 77 80
80 66 61 52 44 39 36 32 31 31 31 33 36 38 39 40 41 42 43 45 47 49 50 52 54 55 57 58 60 62 64 66 67 70 70 70 70 71 72 73 73 73 73
95 62 54 49 41 36 33 29 29 29 29 29 30 33 36 38 40 41 42 44 45 45 47 49 51 53 54 56 59 61 63 64 65 67 68 69 70 71 72 73 73 73 73
131 66 35 30 30 26 25 23 24 23 24 25 26 26 28 31 34 38 39 41 44 45 45 46 48 50 53 53 54 56 58 60 62 64 64 64 65 67 69 70 69 69 68